Wind_Speed
35 34 36 37 37 35 34 33 30 26 26 25 22 21 23 26 27 26 24 23 22 21 21 20 20 21 22 22 22 21 21 20 20 20 21 22 22 22 22 22 22 21 20 20 21 21 22 23 24 24 24 24 23 23 24 24 24 24 24 24 24 24 23 21 21 20 19 19 18 18 18 18 18 18 18 18 19 20 21 21 21 20 19 19 19
37 36 37 36 36 36 35 34 32 28 27 27 24 22 24 27 29 28 25 24 23 22 21 20 21 22 23 23 23 22 21 21 21 21 21 22 22 22 22 22 22 22 22 22 23 23 24 24 25 25 25 25 25 25 25 25 25 25 25 25 25 24 23 21 20 19 18 18 18 18 18 18 18 18 18 18 20 21 21 20 20 20 19 19 19
38 39 39 37 36 37 36 35 34 31 29 28 26 23 24 28 30 29 26 25 24 23 22 21 22 23 23 24 24 23 22 22 22 22 22 22 22 22 22 23 23 24 24 24 24 25 25 25 26 26 26 26 26 26 26 26 26 26 26 26 26 24 23 21 18 17 16 17 17 17 17 17 17 17 17 19 20 21 21 20 20 20 19 19 19
39 40 40 37 37 37 37 36 34 32 31 30 27 25 26 29 31 30 27 25 25 24 23 23 23 23 24 24 24 23 22 22 23 23 23 23 23 23 23 23 24 25 25 26 26 26 26 26 26 26 27 27 27 26 26 26 26 27 27 28 27 27 26 24 24 22 16 14 16 16 16 16 16 16 17 18 20 21 21 20 20 20 19 19 19
40 41 40 38 37 37 37 37 35 34 33 31 28 27 28 30 32 31 28 26 25 24 24 24 24 24 24 24 24 23 23 23 24 24 24 23 23 23 23 24 24 25 25 26 26 26 27 26 26 26 27 27 27 27 27 27 27 28 29 28 28 28 26 27 32 28 16 12 15 15 15 16 15 16 16 18 19 20 20 21 21 20 19 19 19
39 41 40 37 35 35 36 37 35 34 34 32 30 29 29 31 33 32 29 26 25 24 25 25 24 24 24 24 24 24 24 24 24 25 25 24 24 23 23 24 24 25 25 25 26 26 26 26 26 26 27 27 27 27 27 28 28 28 28 27 27 26 26 27 30 25 15 13 14 14 15 16 15 15 16 17 18 19 19 20 21 21 20 20 21
38 39 38 35 33 33 34 35 35 34 34 33 31 30 31 33 34 33 29 26 25 24 25 25 25 25 25 25 25 24 24 24 24 25 25 25 24 24 24 24 24 24 25 25 25 25 25 26 26 26 27 27 27 27 28 28 28 28 26 27 26 26 26 26 24 19 15 13 14 14 15 15 15 15 16 17 18 18 18 19 20 21 20 20 22
37 37 35 33 31 31 32 34 34 34 34 34 31 31 32 34 35 33 29 26 24 24 25 26 25 26 26 25 26 25 25 25 24 25 25 25 25 25 24 25 25 25 24 24 24 24 24 25 26 26 26 26 27 28 28 28 28 28 27 26 26 25 25 22 19 17 16 14 14 14 15 14 14 15 16 16 17 17 18 19 19 20 20 20 21
37 36 34 32 31 31 32 33 34 34 35 34 32 32 33 35 35 33 30 27 25 24 26 27 26 27 27 26 26 25 25 25 24 25 26 26 26 25 25 25 25 24 24 23 23 23 24 24 25 25 25 26 28 28 28 28 27 27 27 25 24 24 22 19 18 18 17 15 15 14 14 14 14 15 16 16 16 17 17 18 18 19 20 20 20
35 34 32 29 29 30 31 32 33 34 35 34 32 32 34 35 35 33 30 28 26 25 26 27 27 28 28 27 27 26 25 25 25 26 26 26 26 26 26 25 24 24 23 23 23 23 23 23 23 24 25 26 28 28 27 27 26 26 25 24 23 22 19 17 18 19 17 16 15 15 14 14 14 15 15 16 16 17 17 18 18 18 19 21 21
34 33 31 29 29 30 30 30 33 35 35 34 32 33 34 35 36 34 32 29 27 26 27 27 28 29 29 28 27 26 26 26 26 26 26 26 26 26 25 25 25 24 23 23 23 23 23 23 23 24 25 26 27 27 26 26 26 25 24 23 22 20 18 18 19 19 18 17 16 15 14 14 14 14 15 15 16 17 17 18 18 18 19 20 21
35 33 32 31 30 29 29 30 33 35 34 33 31 32 34 36 36 35 33 30 28 27 27 28 28 29 30 29 28 27 27 27 26 26 26 26 27 26 26 25 25 24 24 24 24 23 23 23 24 24 25 25 26 26 26 27 26 25 25 23 21 19 18 18 19 19 18 17 16 15 14 14 14 14 15 15 16 17 18 18 19 19 19 19 20
36 34 32 30 30 30 30 30 33 34 33 32 31 31 34 36 36 35 33 31 29 28 28 28 29 30 31 30 29 27 27 27 27 27 27 27 27 27 27 26 25 25 25 25 25 25 24 25 25 25 24 25 26 26 26 27 26 25 24 23 21 19 18 18 19 19 18 17 16 15 14 14 14 14 15 16 16 17 18 19 19 20 20 20 20
35 32 30 29 30 31 30 30 32 33 32 31 31 32 34 35 35 34 33 31 30 29 27 28 29 30 31 30 29 28 28 29 29 28 28 28 28 28 28 27 26 26 26 27 27 26 26 26 26 25 25 26 27 26 25 25 25 24 23 22 21 19 18 19 19 19 18 17 16 15 15 14 14 14 15 16 16 17 18 19 20 20 21 21 21
32 28 28 29 30 29 29 30 32 32 31 30 31 32 33 34 34 34 33 32 30 28 28 29 30 30 30 31 30 29 29 30 30 29 28 28 29 29 29 28 27 27 27 28 28 28 28 28 28 26 25 26 25 23 22 22 23 23 22 22 21 19 19 19 19 19 19 18 16 15 15 14 14 14 15 16 16 16 17 18 19 20 21 21 22
29 28 28 29 28 28 28 29 30 30 29 29 30 32 33 34 34 34 34 32 31 29 28 29 30 30 30 31 31 31 30 31 31 30 29 29 29 29 29 29 28 28 28 28 28 28 28 28 28 26 25 23 22 21 22 23 23 22 21 21 21 19 19 19 19 20 19 18 17 16 15 15 15 15 15 16 17 16 17 18 19 20 20 21 21
28 28 27 27 26 26 27 28 28 28 27 28 30 31 33 34 34 34 34 33 31 30 29 29 30 31 31 32 32 31 31 30 31 31 31 30 30 30 30 30 30 29 28 28 28 28 28 28 26 24 23 22 21 21 23 23 22 22 21 21 21 20 20 20 20 20 20 19 17 16 15 15 16 16 16 16 17 17 17 18 19 20 20 20 20
28 27 25 24 24 24 25 25 25 25 26 28 29 30 31 33 33 33 33 32 30 28 28 30 31 31 31 32 32 31 30 30 31 32 32 32 31 31 31 32 31 30 30 29 29 28 28 27 25 24 23 23 23 23 23 23 22 21 21 21 21 21 21 21 21 21 20 19 17 16 16 16 16 17 16 16 16 17 17 18 19 20 20 20 20
28 26 24 24 24 25 25 24 24 24 26 28 29 30 30 31 32 32 32 32 30 28 29 31 32 31 31 32 33 33 32 31 32 33 34 33 32 32 33 33 32 32 31 30 29 28 27 26 25 24 24 25 25 25 24 23 22 21 21 22 22 22 22 22 22 21 20 19 18 17 16 17 17 17 17 17 17 17 17 18 19 20 20 21 21
26 25 25 24 25 25 24 24 25 26 27 28 28 29 30 31 32 32 32 32 32 31 31 32 32 31 31 32 33 33 33 32 33 34 34 34 33 32 33 34 33 32 31 30 29 29 28 27 25 24 25 25 25 23 22 21 22 22 23 23 23 22 22 23 23 21 20 19 18 17 17 18 18 18 18 18 17 17 17 18 19 20 20 21 21
27 28 28 28 27 27 26 26 27 27 27 28 29 29 30 31 33 34 33 33 33 32 33 33 32 31 32 33 32 32 33 34 34 34 35 35 34 33 34 34 32 31 30 30 30 30 29 26 25 25 26 25 23 21 20 20 21 22 23 23 23 23 24 23 22 21 21 20 19 18 18 18 19 19 19 18 18 18 18 19 19 19 20 21 21
30 29 29 30 31 30 29 29 28 28 28 28 28 29 31 33 35 36 36 35 34 34 34 34 32 30 31 33 33 32 32 34 36 36 36 36 36 35 33 32 30 31 32 32 32 30 28 26 26 26 26 24 22 20 20 20 20 21 22 23 24 24 24 23 22 21 21 20 19 18 18 19 20 20 20 19 19 18 19 19 19 19 19 20 21
26 25 26 29 30 30 30 32 31 30 29 27 26 27 30 34 36 36 36 36 37 37 36 35 34 31 31 34 34 33 32 34 37 37 36 38 40 37 33 31 30 30 32 33 31 29 27 26 25 25 24 23 22 21 20 20 21 21 22 23 24 24 24 24 23 22 21 20 19 19 19 20 21 21 21 21 20 19 19 20 20 19 19 19 20
24 24 26 27 26 25 27 31 33 33 31 29 27 25 26 29 32 33 34 35 37 37 36 35 35 34 33 34 34 32 32 35 37 37 36 38 38 34 30 28 26 26 27 29 28 26 25 24 24 23 23 22 22 22 21 21 21 22 23 23 23 24 24 24 23 22 21 20 19 19 20 21 21 21 21 21 20 20 20 20 20 19 19 19 20
23 25 27 28 28 27 28 31 34 35 34 34 33 31 29 29 31 33 33 34 35 36 35 35 35 35 35 34 32 30 31 33 34 35 35 36 33 27 25 25 22 23 25 25 24 24 24 24 24 23 22 21 22 22 22 22 22 22 23 24 23 23 23 24 24 23 21 20 20 20 21 21 22 22 22 21 21 21 21 21 20 19 19 19 19
22 25 28 29 29 29 31 33 34 34 34 34 34 34 34 34 34 35 35 35 35 35 34 34 35 35 36 34 30 28 30 32 32 31 32 32 28 23 22 23 22 22 23 22 23 24 24 24 24 23 22 22 21 21 21 22 22 22 23 24 23 22 22 23 24 23 21 20 21 21 21 22 23 23 22 22 21 21 21 21 20 20 19 19 19
21 24 26 27 27 28 30 31 32 32 33 34 33 34 35 35 36 37 37 37 36 34 32 34 35 35 35 32 30 31 32 32 31 30 29 28 26 23 22 22 22 21 20 21 22 23 24 24 24 24 23 22 21 21 22 23 23 22 23 23 23 23 23 24 24 23 22 22 22 22 23 24 24 23 22 22 22 21 21 21 21 20 20 19 19
24 25 27 28 28 29 30 30 31 32 34 35 35 35 34 34 35 36 36 37 37 34 33 35 36 36 34 31 30 31 30 27 27 28 27 27 26 24 23 22 22 22 21 22 24 25 26 26 26 26 24 22 22 23 23 22 22 22 23 24 24 25 25 25 25 24 23 23 23 23 24 24 24 24 23 23 22 22 22 23 22 21 20 19 19
26 27 28 28 29 30 31 32 33 35 37 37 36 36 35 34 33 34 35 35 34 32 31 32 32 31 29 27 27 24 21 20 23 25 27 28 26 24 24 24 24 24 23 24 26 26 26 25 25 26 25 24 24 23 20 19 20 21 23 25 26 26 27 26 25 24 24 24 24 24 24 25 25 25 24 23 23 22 23 23 23 22 20 19 19
27 27 28 29 30 31 32 34 35 37 38 38 38 38 36 34 33 34 34 33 31 31 31 29 27 25 24 23 22 19 16 18 21 23 24 26 25 25 27 27 25 24 22 22 23 23 22 23 24 25 24 24 22 20 18 19 20 21 23 24 26 27 27 26 24 24 25 26 24 24 25 25 25 25 25 23 23 23 23 24 23 22 20 19 19
27 28 28 29 30 31 32 33 35 35 35 37 39 38 35 33 34 34 32 32 33 33 32 30 27 26 24 23 21 20 20 23 25 26 26 27 27 28 30 28 24 22 21 21 21 21 22 22 22 22 22 22 20 19 19 20 21 21 22 24 25 25 25 24 23 24 26 25 24 24 26 26 26 26 25 24 23 23 24 24 23 22 21 19 19
27 27 27 28 30 30 30 30 30 29 30 34 37 37 34 32 32 30 30 32 32 31 32 32 31 29 27 26 25 25 26 27 29 30 29 30 30 31 30 27 24 22 21 21 21 22 22 21 21 21 21 20 20 20 21 21 21 21 23 23 23 23 23 22 22 25 26 25 26 27 27 27 26 25 25 24 24 24 24 24 24 23 21 20 19
26 26 26 27 28 29 30 30 27 26 28 32 35 35 33 32 32 33 35 35 33 31 32 34 31 28 27 27 26 27 28 29 30 30 29 30 32 31 29 25 22 21 21 21 22 22 21 20 21 22 21 19 20 21 22 23 23 23 24 24 23 23 23 23 24 26 26 26 28 29 28 27 25 25 25 25 24 24 24 24 24 23 22 20 19
24 24 25 26 27 29 31 32 30 27 29 31 33 33 31 31 34 35 34 34 35 34 33 33 31 29 28 27 24 25 27 28 29 29 29 30 31 30 28 25 22 21 22 23 22 20 19 20 21 22 21 20 21 23 24 25 26 26 26 25 25 25 26 26 26 26 26 27 29 29 28 26 25 24 25 25 25 25 24 24 24 23 22 21 20
21 22 23 25 27 29 31 32 31 28 28 30 31 30 28 30 33 33 29 28 31 31 30 30 30 28 27 24 22 23 25 26 27 27 27 28 29 29 28 27 24 22 23 23 22 20 20 21 21 21 21 22 23 25 26 27 28 29 28 28 28 28 29 29 28 27 27 28 28 27 26 25 25 24 24 25 25 25 24 23 23 22 22 21 21
17 18 20 22 24 26 28 31 31 29 27 27 27 27 27 28 29 29 26 25 27 28 28 28 27 25 24 23 24 26 28 28 28 28 27 27 27 28 28 26 24 23 24 25 24 23 23 23 22 22 23 24 25 25 26 28 29 30 29 29 29 29 29 29 29 28 28 27 25 24 24 23 23 23 23 24 25 25 24 23 23 22 22 22 22
16 17 17 18 20 24 27 30 30 29 27 25 25 27 27 26 25 25 25 25 26 27 27 26 25 25 25 25 24 24 25 26 27 27 26 26 26 26 26 25 24 25 26 27 26 24 23 23 24 24 25 25 25 24 25 27 28 29 29 29 29 29 30 30 30 29 27 24 22 21 21 21 22 22 23 24 25 24 24 23 22 22 22 22 23
15 14 14 14 15 19 24 27 26 26 26 26 25 25 25 23 22 24 25 25 25 25 25 25 25 25 25 23 21 20 21 22 23 23 23 23 23 23 23 24 26 28 27 26 25 24 24 24 26 26 26 25 25 24 24 25 26 27 27 27 28 28 29 29 28 26 23 21 20 20 20 20 21 22 24 24 23 23 23 23 23 22 22 23 23
11 11 12 12 12 14 18 21 22 23 24 24 23 23 23 23 23 24 24 23 22 21 21 22 23 22 21 20 20 20 20 21 21 21 22 22 22 23 24 26 27 27 26 25 25 25 25 26 27 27 27 26 26 25 24 24 25 26 26 26 27 27 27 26 24 22 20 19 19 19 18 19 20 22 23 23 22 21 22 23 22 22 22 23 23
10 8 9 10 11 12 14 16 19 21 22 22 22 23 23 22 22 23 21 20 19 20 20 20 21 20 19 20 20 21 23 23 24 25 25 25 26 26 26 26 26 26 25 25 25 25 26 27 27 28 28 27 26 26 25 25 24 24 24 24 25 25 24 23 22 20 19 18 18 17 18 19 20 22 22 22 21 21 22 22 22 22 22 23 23
9 8 8 8 9 10 11 13 16 18 19 19 19 21 23 23 22 22 21 20 20 20 21 22 21 19 19 20 21 21 23 24 25 27 27 27 26 24 23 24 25 26 25 24 23 24 26 27 28 29 29 27 26 26 26 25 24 22 22 22 22 23 23 22 21 19 19 18 18 19 19 20 21 22 22 21 21 21 21 21 21 21 22 23 23
8 8 8 8 7 7 9 10 11 13 16 18 17 18 19 19 17 17 17 18 17 16 17 18 18 17 17 17 17 16 17 18 19 20 21 21 20 20 20 22 24 25 24 23 23 24 25 27 28 28 27 26 25 25 25 25 24 22 22 21 21 22 22 22 21 21 20 21 21 21 21 21 21 22 22 21 21 21 20 20 20 21 22 23 23
8 10 10 8 6 5 6 7 6 6 9 12 11 9 8 8 8 8 10 12 12 12 13 14 14 14 15 15 15 14 14 15 16 16 17 17 18 18 20 22 23 24 24 24 25 25 26 26 27 26 25 25 25 25 25 24 24 23 22 22 22 22 23 23 23 23 23 23 23 22 22 22 22 23 23 22 21 21 20 20 21 21 22 22 22
8 10 9 8 8 9 9 9 8 7 7 7 7 7 6 5 6 8 10 11 12 12 14 15 15 15 15 15 15 15 15 16 16 17 17 18 19 20 22 23 24 24 24 24 25 25 26 26 25 25 26 26 26 25 24 25 24 24 23 23 23 23 23 24 25 25 25 25 25 24 23 23 23 23 22 22 21 21 21 21 21 21 22 22 22
8 8 8 7 8 9 9 10 10 11 11 11 11 11 11 12 12 13 14 15 15 16 18 18 18 17 17 16 16 16 16 17 18 18 19 20 20 21 22 23 24 25 25 25 25 26 26 25 25 26 27 27 27 26 26 26 25 25 25 25 23 23 23 25 26 27 27 26 24 23 23 24 24 23 22 21 21 21 21 21 21 21 22 22 22
9 9 9 8 8 7 7 8 9 10 11 12 12 12 13 14 15 17 18 18 18 18 19 20 20 20 19 18 17 16 16 17 17 18 19 19 19 20 21 22 22 22 23 24 24 24 24 24 25 26 27 28 28 28 28 28 27 26 26 25 24 23 25 26 26 26 25 24 23 24 25 25 24 23 22 22 22 21 21 21 21 22 22 22 23
10 10 10 10 9 9 8 8 8 8 9 11 12 12 13 14 15 16 16 16 16 17 18 18 19 19 18 17 16 16 16 16 16 17 18 18 19 20 21 21 21 20 20 21 22 23 24 25 25 25 27 29 30 30 31 31 29 28 27 26 25 25 25 26 25 24 24 23 24 25 25 25 25 24 23 22 22 21 20 20 20 21 22 22 23
12 12 11 11 10 10 10 10 9 8 9 10 10 9 11 12 13 13 13 14 15 16 16 16 15 15 15 15 15 15 16 16 17 17 18 19 19 20 21 22 22 22 22 22 22 24 26 28 27 27 29 31 32 32 33 33 31 29 28 27 26 26 25 24 23 23 23 24 25 25 25 24 24 24 24 23 22 21 20 20 20 21 22 22 23
10 11 12 12 12 11 11 11 11 10 11 12 11 9 9 11 11 12 13 14 15 15 16 17 17 17 17 17 17 17 17 18 18 19 21 22 22 22 23 23 24 26 27 26 25 24 24 26 27 28 31 34 35 35 34 34 32 31 30 29 28 26 25 23 22 23 24 26 26 26 25 24 23 23 23 23 22 21 21 20 21 21 22 22 22
8 9 9 10 11 12 12 13 12 12 13 14 13 12 12 13 13 14 15 15 15 16 19 21 21 20 18 18 19 19 19 19 20 21 22 24 25 25 26 25 25 25 27 28 28 27 26 27 28 29 31 32 33 34 35 35 34 32 30 27 25 24 22 22 22 24 26 28 29 28 26 25 24 23 23 23 22 22 22 21 21 22 21 21 22
9 8 6 5 6 7 8 11 13 14 15 16 16 16 16 16 15 16 17 18 19 20 21 22 23 22 20 19 20 21 21 21 21 22 22 23 24 25 25 24 23 23 25 26 27 28 28 28 28 28 29 31 33 35 36 35 31 27 24 21 20 20 20 21 23 26 27 28 29 28 27 26 25 24 24 24 24 23 22 22 22 22 22 22 22
Wind_Direction
238 245 247 245 244 247 250 249 248 247 247 248 249 247 242 236 236 239 240 242 246 249 251 250 250 252 255 258 259 260 259 256 253 247 241 237 237 238 240 243 245 247 248 249 251 256 259 262 265 267 269 269 268 266 265 265 266 268 271 275 277 280 283 286 290 293 296 296 298 301 304 307 309 310 311 313 317 320 320 320 321 322 322 325 327
239 245 248 246 243 245 248 248 247 245 246 248 249 250 244 237 236 238 239 241 245 248 250 250 250 251 255 257 258 260 259 255 251 247 242 240 239 240 242 244 246 248 250 252 254 258 261 263 265 266 267 268 267 266 265 265 267 269 272 275 276 278 281 283 286 288 291 293 295 299 303 305 308 310 311 314 317 319 320 320 320 320 321 323 326
239 244 247 246 244 244 247 247 246 244 246 248 249 250 245 237 235 238 238 239 244 247 249 249 250 251 254 256 258 260 259 254 250 246 243 242 242 243 245 246 248 249 252 254 256 259 261 263 265 265 266 267 267 267 266 267 269 271 273 274 275 275 275 273 272 273 279 287 292 297 301 304 307 309 310 313 317 319 320 319 318 318 319 321 325
239 242 245 245 244 244 246 247 245 243 245 249 250 249 243 235 234 237 237 238 242 247 248 249 250 251 254 257 259 260 259 255 250 246 244 244 244 246 247 248 250 251 253 255 256 258 261 263 265 265 266 267 267 267 268 269 272 273 275 275 276 275 274 273 278 279 277 282 289 294 300 303 306 307 309 314 318 320 319 318 317 317 318 321 325
238 240 242 244 243 243 245 245 244 242 244 247 249 248 242 234 233 236 235 236 241 246 248 249 250 252 253 256 258 259 258 255 251 247 245 246 246 248 250 252 253 254 254 256 257 259 262 264 264 265 266 267 267 268 270 272 274 276 278 279 281 284 286 292 296 293 284 280 287 293 299 302 303 305 309 315 318 319 318 318 318 318 319 322 326
236 238 240 242 242 242 243 243 243 242 243 245 248 247 241 233 233 235 234 235 240 246 249 249 250 251 252 256 258 258 257 255 252 249 247 248 249 252 255 256 256 256 257 258 259 261 262 263 264 265 267 268 268 269 272 275 277 278 279 282 287 292 297 301 299 291 279 279 287 293 298 300 301 305 310 315 317 318 318 318 319 319 321 324 327
236 238 240 243 243 243 243 242 242 241 241 244 246 246 240 232 232 234 232 233 239 245 249 249 249 250 252 255 258 258 256 254 252 250 249 249 252 255 258 258 257 257 258 258 260 261 262 263 264 266 267 268 269 271 274 275 276 277 280 286 291 295 298 299 293 284 279 283 287 292 295 297 300 305 310 314 316 318 319 320 320 319 322 325 325
239 241 244 246 247 246 244 242 241 240 239 241 244 244 238 231 231 233 231 232 238 244 248 248 248 250 251 253 257 258 256 254 252 250 249 249 252 255 257 257 257 257 257 257 258 259 261 263 265 267 268 269 270 271 273 274 276 279 285 290 293 295 297 294 286 281 283 283 285 290 292 295 299 304 309 313 316 319 320 320 320 320 320 322 322
241 244 245 248 249 248 245 242 241 237 236 239 242 241 236 230 230 233 231 232 237 242 246 247 248 249 250 252 255 257 256 254 252 250 249 249 251 254 256 257 257 256 255 256 257 259 262 264 266 268 269 270 270 270 273 275 278 284 289 290 290 292 293 287 280 280 282 281 284 287 289 293 298 302 307 312 315 318 320 321 321 320 319 319 319
242 243 245 249 250 246 242 240 238 234 233 237 240 240 235 230 231 233 231 232 237 242 246 247 248 249 251 252 254 257 257 254 252 250 249 249 251 254 256 258 257 255 255 257 258 260 262 264 267 269 270 271 273 275 278 279 280 285 286 284 286 289 285 278 276 278 279 280 283 286 289 293 296 300 307 312 314 316 320 322 322 322 321 320 319
242 244 249 252 247 239 236 236 234 231 231 235 239 239 233 230 231 233 231 232 238 244 248 248 248 249 251 252 253 255 256 254 252 251 250 251 252 254 256 257 256 255 255 258 259 260 262 265 268 269 272 274 276 279 281 280 280 282 281 282 284 283 277 273 274 275 277 280 284 287 290 291 294 300 306 310 313 316 319 322 323 323 322 320 318
243 247 252 251 243 235 233 232 230 228 229 234 239 237 232 229 232 235 233 233 239 245 248 248 248 249 251 251 252 253 255 254 252 251 251 251 252 253 255 256 256 255 256 258 259 260 262 265 268 270 273 275 275 277 278 279 278 279 281 282 280 276 273 272 272 274 276 280 286 289 290 291 294 299 305 309 312 315 319 323 325 324 322 320 317
246 248 249 244 236 233 231 228 225 225 229 234 238 235 230 229 233 236 236 236 240 245 246 246 248 249 251 251 251 252 254 254 252 251 251 251 252 253 254 255 255 254 255 257 258 260 262 266 269 271 273 274 274 274 276 278 278 278 280 279 273 270 272 272 272 275 277 282 288 290 290 291 294 299 304 309 311 315 321 325 326 326 324 322 319
245 245 241 235 232 232 229 224 223 225 229 234 236 234 230 230 234 237 238 238 240 244 246 247 249 250 251 252 251 251 252 253 252 251 250 251 252 252 252 254 255 254 255 256 259 261 263 266 270 272 274 275 276 276 277 278 279 279 278 273 268 267 271 272 273 276 279 284 289 290 290 292 295 298 303 306 310 315 321 324 327 327 327 325 322
238 235 232 230 231 229 224 221 221 225 229 234 235 233 231 232 234 237 239 241 242 243 244 247 250 251 252 252 251 251 250 251 251 250 250 251 251 252 252 252 254 255 255 256 259 261 264 266 269 272 274 275 276 279 282 283 283 280 275 269 266 267 270 272 275 277 281 286 290 291 291 293 295 297 300 304 309 314 319 323 326 327 327 327 325
227 226 226 228 227 223 220 221 223 227 232 234 235 234 233 234 236 238 240 242 243 243 244 247 249 251 253 252 250 249 248 249 251 250 249 250 251 251 251 251 253 255 256 257 259 261 264 267 269 272 275 275 276 279 283 286 285 279 271 265 265 268 271 275 277 279 282 287 290 291 292 294 296 296 299 303 307 312 316 320 324 325 327 328 327
221 222 221 219 217 217 221 225 227 231 234 236 236 236 235 236 238 240 242 244 245 245 247 250 249 249 251 251 250 249 249 250 252 251 250 250 250 251 251 250 252 254 255 256 258 261 265 268 272 276 278 278 279 280 283 285 283 276 268 264 267 271 273 275 277 279 282 286 289 291 292 295 296 296 297 301 305 309 313 318 321 323 325 326 326
213 210 207 207 211 217 223 227 230 234 237 239 240 239 239 239 240 241 242 243 244 245 248 249 248 247 249 250 250 249 249 251 252 252 251 250 249 250 250 249 249 252 254 256 259 263 266 268 272 276 278 279 280 280 282 283 281 274 267 266 270 274 274 275 276 279 282 286 288 289 290 293 294 295 296 298 302 305 309 315 318 320 322 325 325
203 203 205 207 211 215 218 222 228 233 237 239 240 240 240 240 240 240 242 242 242 244 246 248 248 247 247 248 247 246 245 247 250 252 252 251 250 250 250 249 248 251 254 257 260 263 264 266 271 274 276 278 279 279 279 279 277 272 267 267 271 273 273 274 276 279 282 284 286 287 289 291 293 294 295 296 298 302 305 310 313 315 319 322 325
205 209 210 211 212 214 216 219 224 229 233 236 239 240 240 240 240 241 243 245 246 247 248 248 247 245 245 246 244 243 243 244 246 250 252 252 251 249 249 248 248 250 254 258 260 262 263 265 270 273 275 277 277 276 275 273 273 272 270 270 270 271 272 274 277 279 281 282 284 286 288 291 292 293 294 294 295 298 301 304 308 311 315 320 324
211 211 211 212 215 217 218 220 224 228 231 233 234 235 238 240 242 243 244 247 249 249 249 248 245 242 243 244 243 241 242 243 245 247 250 252 251 249 247 246 246 248 253 257 259 261 262 265 268 270 272 274 273 272 271 269 270 272 272 271 269 270 273 276 276 278 279 280 283 285 288 291 291 291 292 291 292 294 296 299 303 306 312 318 322
212 214 215 216 219 223 224 226 228 232 235 238 240 241 239 239 242 244 245 246 248 248 247 248 246 242 240 241 241 239 241 243 243 245 248 251 250 248 246 246 247 249 251 253 256 259 261 263 265 267 270 271 271 269 266 265 268 271 271 270 270 273 275 275 275 276 277 279 282 285 287 289 289 289 290 289 290 292 293 295 299 304 310 315 318
218 222 224 226 228 232 234 234 235 238 243 250 255 252 242 238 240 244 245 245 246 247 245 244 245 245 241 238 238 238 239 241 243 244 246 249 250 247 244 246 251 253 251 250 252 255 259 262 265 266 268 270 269 266 264 265 268 270 269 269 272 274 275 274 274 274 275 278 283 284 284 284 286 288 289 288 289 290 289 292 296 301 307 311 314
227 230 234 237 239 243 245 242 240 243 248 254 258 255 245 240 239 241 241 241 243 244 243 240 242 244 241 235 234 236 237 239 242 245 248 253 255 250 241 239 243 246 244 243 246 252 258 261 262 262 265 268 268 266 265 266 266 267 267 269 272 273 274 274 273 273 275 279 282 282 282 283 286 289 289 289 288 287 287 289 293 298 304 307 310
239 242 245 244 243 246 248 243 240 241 245 249 252 252 249 245 242 240 239 239 239 239 238 237 239 238 234 230 230 233 236 240 244 251 257 261 263 252 233 227 229 232 234 239 246 253 257 257 257 260 264 267 267 267 268 267 265 265 266 267 270 272 273 272 272 273 276 278 279 280 281 284 287 289 288 286 284 284 285 288 291 295 300 304 307
245 244 243 240 237 236 236 235 235 236 238 240 242 243 243 242 242 242 241 240 239 237 234 235 237 233 227 225 226 231 237 242 248 254 257 258 257 245 230 226 228 228 234 244 251 255 257 257 258 261 265 268 269 270 270 267 263 264 267 269 270 271 272 271 271 273 275 276 277 279 280 283 286 287 286 284 282 283 284 286 288 291 296 300 304
234 230 230 232 231 230 230 231 233 233 232 232 234 237 238 237 237 240 242 241 240 238 235 235 235 228 220 218 222 228 235 241 246 250 248 242 240 237 234 235 235 234 240 249 251 253 256 258 260 264 269 273 274 272 269 265 264 266 269 270 270 269 268 268 270 272 273 274 275 277 279 282 284 284 284 283 282 282 283 283 285 288 292 297 302
233 232 232 234 235 235 235 234 233 232 230 229 230 233 235 235 236 239 242 242 243 241 236 232 227 221 216 216 222 230 236 241 245 244 236 229 231 236 239 242 245 245 243 243 245 252 258 261 263 268 272 274 272 268 267 268 270 272 272 270 268 267 266 266 268 270 273 274 276 278 280 282 283 283 283 283 282 281 282 283 284 285 288 294 299
241 241 241 240 240 240 239 237 235 234 231 229 228 230 231 233 238 242 243 242 239 234 229 223 218 217 218 219 223 230 236 241 243 238 231 228 232 236 237 240 245 247 244 244 249 257 264 267 269 270 271 273 271 267 267 271 274 275 274 272 269 266 266 267 269 272 274 275 277 280 282 283 283 283 283 283 283 282 282 282 283 283 286 289 293
245 244 244 243 242 242 241 240 238 235 234 231 227 227 228 228 232 240 242 234 222 214 212 211 211 214 218 219 223 225 224 227 230 228 226 227 229 233 238 241 244 245 248 253 259 265 270 274 274 273 272 270 267 265 268 273 275 274 273 272 269 267 266 268 271 273 274 275 277 280 281 282 282 282 282 283 282 281 281 281 282 282 283 285 288
247 246 245 244 245 246 245 246 243 239 238 237 232 229 228 229 233 237 232 219 208 205 208 210 210 214 218 220 222 219 213 212 215 215 216 221 225 233 240 244 246 248 253 260 265 270 273 274 272 270 268 264 261 262 268 271 271 271 270 270 269 268 267 268 271 272 272 274 278 281 282 282 281 281 281 280 280 280 280 280 280 280 279 281 285
252 251 249 248 248 245 242 244 247 246 243 241 237 231 227 230 233 227 212 206 208 208 207 208 210 214 219 219 217 215 215 216 219 219 220 224 229 234 239 244 249 254 258 265 271 275 276 272 267 265 263 257 254 258 264 266 267 268 268 268 268 268 267 267 267 268 270 276 281 283 283 282 280 278 278 278 279 279 280 280 279 279 278 279 282
256 257 256 254 253 250 243 240 243 246 243 239 236 232 228 227 223 212 204 210 217 212 205 206 209 211 215 217 217 217 218 220 223 225 226 229 233 237 241 247 252 257 263 271 277 278 275 269 263 262 259 252 249 255 260 261 262 264 266 266 266 266 265 265 265 268 274 280 283 284 283 282 278 276 276 276 278 279 280 280 279 279 279 278 278
256 258 258 256 254 253 246 237 235 238 238 235 235 233 227 220 216 214 214 217 217 211 206 204 203 204 210 218 223 224 223 223 225 227 230 234 239 244 246 247 250 257 267 273 272 270 270 266 260 259 258 252 249 252 254 256 260 263 265 266 267 267 267 267 268 272 277 281 282 283 284 282 279 277 275 275 277 278 279 279 279 279 278 276 275
261 261 260 257 254 249 241 234 232 233 232 232 234 231 220 212 212 216 218 216 214 212 210 205 201 205 214 221 223 223 223 227 231 235 239 243 248 249 247 246 250 260 268 269 265 266 269 265 257 255 256 255 253 254 255 258 262 264 266 267 268 269 270 271 273 276 278 280 282 283 283 282 281 279 276 275 276 278 279 279 277 277 276 275 274
268 265 262 260 257 250 239 232 231 230 227 227 227 220 212 210 212 212 211 209 208 210 209 206 205 210 218 224 226 222 221 226 234 241 246 250 252 252 248 247 252 260 266 268 269 270 269 262 255 252 255 256 259 262 265 267 267 267 267 268 270 271 272 273 275 277 278 279 280 281 281 282 282 282 280 277 276 277 278 278 276 274 273 272 272
276 272 266 260 255 248 238 231 227 224 220 217 214 210 208 209 208 205 204 205 206 207 207 207 208 212 220 227 230 227 226 229 234 240 246 250 253 254 253 252 255 260 265 268 269 266 262 257 252 250 251 254 260 267 272 273 271 269 268 269 270 271 272 272 273 275 276 277 277 278 279 281 281 281 280 278 276 276 277 276 274 273 271 270 270
279 272 264 259 250 239 232 226 220 214 210 207 203 201 200 199 199 200 202 204 205 206 205 205 208 214 221 225 227 228 230 235 239 244 249 253 258 260 260 258 259 261 264 265 263 261 257 252 248 248 250 254 261 269 275 276 272 268 268 269 269 269 269 270 271 272 272 273 274 275 276 278 280 279 278 277 277 277 275 274 274 273 271 271 270
291 271 257 252 238 221 217 213 207 204 204 202 200 200 199 197 198 200 198 196 195 197 200 204 209 215 220 223 229 235 241 245 249 252 254 256 260 261 261 259 259 260 262 262 261 259 253 245 243 246 250 255 262 270 275 276 273 268 266 267 267 267 268 268 268 267 267 267 268 270 273 277 279 278 277 276 275 274 273 273 274 273 272 271 269
311 291 268 251 233 222 218 209 202 203 206 205 206 207 203 198 197 195 191 190 193 196 202 209 213 216 223 231 239 246 251 254 256 256 256 256 258 258 258 258 258 260 261 261 260 256 247 239 240 245 250 257 265 271 275 277 274 268 266 267 267 267 267 265 264 262 262 263 265 268 273 277 279 279 280 278 274 272 272 272 272 271 271 270 268
309 299 281 262 244 237 230 211 196 195 200 205 205 201 193 191 195 194 192 196 203 205 209 216 219 222 231 241 248 252 255 256 255 255 255 255 255 254 253 255 259 261 260 258 258 254 248 243 244 249 255 262 268 272 275 277 274 270 270 272 272 270 266 263 260 259 259 261 264 268 272 275 277 280 282 278 273 270 270 269 269 270 269 269 267
290 283 272 259 248 240 233 219 200 188 189 192 190 183 180 184 192 194 194 203 216 224 228 234 239 242 245 251 255 256 254 250 248 248 250 252 253 254 254 257 261 263 261 258 255 253 252 252 254 257 262 266 270 274 277 277 274 274 277 280 279 275 269 261 257 257 259 262 265 267 268 270 274 278 279 275 269 267 267 267 267 267 268 268 267
262 265 262 252 237 220 214 217 214 203 197 195 192 185 181 184 194 204 211 219 232 242 248 253 259 264 265 265 264 260 254 249 247 247 248 251 254 257 258 259 261 262 261 259 257 255 255 256 258 261 264 266 270 273 275 274 275 279 283 285 284 278 268 260 257 258 261 264 266 266 267 270 274 277 277 273 268 265 264 264 265 266 267 267 266
261 261 264 264 254 240 228 222 222 225 229 230 231 240 249 247 248 254 251 244 244 254 265 273 277 278 278 276 270 262 256 253 253 253 255 257 259 259 258 259 260 261 260 257 256 258 259 259 259 260 262 264 268 271 273 274 277 282 285 286 284 276 267 260 258 260 263 265 266 267 270 274 276 277 275 272 269 266 263 263 265 266 266 266 265
288 274 270 271 263 248 237 233 233 238 243 245 248 252 257 259 262 265 265 262 261 266 274 281 283 283 282 278 270 261 255 253 254 257 259 260 260 259 258 260 262 263 263 259 255 256 258 258 258 259 261 263 268 273 274 274 277 280 282 283 279 272 264 260 259 261 263 265 267 269 272 275 276 275 273 271 269 267 265 264 265 265 266 265 265
304 299 292 287 282 272 257 247 244 244 242 240 238 240 243 248 253 258 260 262 264 268 274 279 281 280 278 274 268 263 258 256 257 259 259 258 257 257 260 263 265 267 266 263 259 259 260 259 258 260 263 266 269 273 274 273 273 275 278 278 274 267 262 259 259 260 263 265 269 273 275 275 274 272 271 270 270 269 267 265 265 265 265 265 264
290 294 295 293 292 288 281 272 264 256 247 245 246 249 253 257 260 263 265 266 267 269 272 274 274 274 273 272 271 271 269 268 268 267 265 264 262 260 262 267 272 273 271 266 262 262 264 263 260 261 265 268 270 271 272 271 270 271 274 274 270 264 259 256 257 261 265 269 274 278 278 275 272 270 270 270 270 269 267 266 266 265 265 263 263
278 280 282 283 284 283 280 279 279 273 269 270 274 277 278 278 277 275 273 271 270 269 268 267 268 270 272 272 271 272 273 274 275 277 277 276 274 272 271 271 272 274 276 275 271 267 264 262 260 262 266 268 269 269 270 270 271 272 272 271 266 260 255 254 258 264 268 272 277 280 279 275 272 270 270 269 268 268 268 267 267 267 265 263 261
283 279 276 276 278 279 279 281 282 279 277 278 277 271 267 271 274 272 269 268 271 272 272 271 270 270 269 268 268 267 267 267 267 268 270 271 271 272 273 271 266 265 267 268 269 268 265 262 260 262 265 266 268 269 269 269 270 271 269 266 262 256 253 254 261 267 271 276 279 280 277 274 272 271 269 267 267 268 268 268 268 268 265 263 261
303 293 286 280 275 271 270 272 272 272 274 277 277 272 265 265 267 267 264 263 265 269 271 273 274 274 273 271 269 267 265 263 260 257 257 258 258 261 265 266 263 261 261 261 261 261 264 264 263 264 266 267 269 269 268 268 270 270 268 264 261 257 256 260 268 274 278 281 281 278 274 270 269 270 269 267 266 267 267 267 267 266 264 262 260
327 322 317 306 293 284 276 268 263 264 268 270 270 269 267 267 268 269 268 266 265 265 268 271 276 279 279 275 271 269 267 264 260 256 253 252 253 256 260 262 259 257 259 261 260 261 265 268 268 268 269 268 268 267 267 267 269 267 264 261 263 265 268 273 278 281 282 281 279 275 270 267 268 269 268 266 265 265 264 263 263 262 262 261 258
Height
3111 3112 3113 3116 3119 3121 3123 3124 3125 3127 3128 3128 3129 3130 3130 3131 3133 3134 3135 3136 3136 3137 3138 3140 3140 3141 3141 3141 3141 3142 3142 3143 3144 3144 3145 3146 3147 3147 3148 3149 3149 3150 3150 3150 3151 3151 3151 3151 3151 3151 3150 3150 3150 3149 3149 3149 3148 3148 3148 3147 3146 3145 3144 3143 3141 3140 3140 3139 3138 3137 3136 3135 3134 3133 3131 3130 3129 3128 3126 3125 3123 3122 3120 3119 3117
3107 3108 3109 3112 3115 3117 3118 3120 3122 3123 3124 3125 3126 3126 3127 3128 3129 3130 3131 3133 3134 3135 3136 3137 3138 3138 3139 3139 3139 3140 3141 3141 3142 3142 3143 3144 3145 3145 3146 3146 3147 3147 3148 3148 3148 3148 3148 3148 3148 3148 3148 3148 3147 3147 3146 3146 3146 3146 3145 3145 3144 3143 3142 3140 3139 3138 3137 3137 3136 3134 3134 3133 3132 3130 3129 3128 3127 3126 3124 3123 3121 3120 3118 3117 3115
3102 3103 3104 3107 3111 3113 3114 3116 3118 3120 3121 3121 3123 3123 3124 3125 3126 3127 3128 3130 3131 3132 3133 3134 3135 3136 3136 3136 3137 3138 3139 3139 3140 3140 3141 3142 3142 3143 3144 3144 3145 3145 3145 3145 3146 3146 3146 3146 3146 3146 3145 3145 3145 3144 3144 3144 3144 3143 3143 3142 3141 3140 3138 3137 3135 3134 3134 3134 3133 3132 3131 3130 3129 3128 3127 3126 3125 3123 3122 3121 3119 3118 3116 3115 3113
3097 3098 3100 3103 3106 3108 3110 3113 3114 3116 3117 3118 3119 3120 3120 3121 3122 3124 3125 3127 3128 3129 3130 3131 3132 3133 3134 3134 3135 3136 3136 3137 3137 3138 3139 3140 3140 3141 3141 3142 3142 3142 3143 3143 3143 3143 3143 3143 3143 3143 3143 3142 3142 3142 3141 3141 3141 3141 3140 3139 3138 3136 3135 3134 3133 3132 3131 3131 3131 3130 3129 3128 3128 3127 3126 3124 3122 3121 3120 3118 3117 3116 3115 3113 3111
3093 3094 3095 3098 3101 3104 3106 3108 3110 3112 3113 3114 3116 3117 3117 3118 3119 3120 3122 3124 3125 3126 3128 3129 3130 3130 3131 3132 3132 3133 3134 3134 3135 3136 3136 3137 3138 3138 3139 3139 3139 3140 3140 3140 3140 3141 3141 3141 3141 3140 3140 3140 3139 3139 3139 3139 3138 3138 3137 3137 3136 3135 3134 3133 3132 3131 3129 3129 3128 3128 3127 3126 3126 3125 3124 3122 3121 3119 3118 3116 3115 3114 3112 3111 3109
3088 3089 3091 3093 3096 3099 3101 3104 3106 3108 3109 3111 3112 3113 3113 3114 3115 3117 3119 3121 3122 3124 3125 3126 3127 3128 3129 3129 3130 3130 3131 3131 3132 3133 3134 3134 3135 3136 3136 3136 3137 3137 3137 3137 3137 3138 3138 3138 3138 3137 3137 3137 3137 3137 3136 3136 3136 3136 3135 3135 3134 3133 3132 3131 3130 3129 3127 3126 3126 3125 3125 3124 3124 3123 3122 3121 3120 3118 3116 3115 3113 3111 3110 3108 3107
3083 3085 3087 3089 3092 3094 3097 3099 3102 3104 3105 3107 3109 3109 3110 3111 3112 3114 3116 3118 3119 3121 3122 3123 3124 3125 3126 3127 3127 3128 3128 3129 3129 3130 3131 3132 3132 3133 3133 3133 3133 3134 3134 3134 3134 3135 3135 3135 3135 3135 3135 3135 3134 3134 3134 3134 3134 3134 3133 3132 3132 3131 3130 3129 3128 3127 3125 3124 3124 3123 3123 3122 3122 3121 3120 3119 3118 3117 3115 3113 3112 3110 3108 3107 3105
3079 3080 3083 3085 3087 3090 3092 3094 3097 3099 3101 3103 3105 3105 3106 3107 3109 3111 3113 3115 3117 3118 3119 3120 3121 3122 3123 3123 3124 3125 3125 3126 3126 3127 3128 3129 3129 3130 3130 3130 3130 3131 3131 3131 3132 3132 3132 3132 3132 3132 3132 3132 3132 3132 3131 3132 3131 3131 3130 3130 3129 3128 3127 3126 3125 3124 3123 3123 3122 3122 3121 3120 3120 3119 3118 3117 3116 3115 3114 3112 3110 3109 3107 3106 3104
3074 3076 3078 3081 3083 3085 3087 3090 3093 3095 3097 3099 3100 3101 3102 3103 3105 3108 3110 3112 3114 3115 3116 3117 3118 3119 3119 3120 3121 3122 3122 3123 3123 3124 3125 3126 3126 3127 3127 3127 3128 3128 3128 3128 3129 3129 3129 3129 3129 3130 3130 3130 3129 3129 3129 3129 3129 3128 3128 3127 3126 3126 3124 3124 3123 3123 3122 3121 3121 3120 3119 3118 3118 3117 3117 3116 3115 3114 3112 3111 3109 3107 3106 3105 3103
3069 3072 3074 3076 3078 3080 3082 3085 3088 3090 3092 3094 3096 3097 3098 3100 3102 3104 3107 3109 3111 3112 3113 3114 3115 3115 3116 3117 3118 3119 3119 3120 3120 3121 3122 3122 3123 3124 3124 3125 3125 3125 3125 3126 3126 3126 3127 3127 3127 3127 3127 3127 3126 3126 3127 3127 3126 3126 3125 3124 3124 3123 3122 3121 3121 3121 3120 3119 3119 3118 3117 3116 3116 3115 3115 3114 3113 3112 3111 3109 3108 3106 3104 3103 3102
3065 3067 3070 3072 3073 3075 3077 3080 3083 3085 3088 3090 3092 3093 3094 3096 3098 3101 3103 3105 3107 3109 3110 3111 3111 3112 3112 3114 3115 3116 3116 3117 3117 3118 3119 3119 3120 3121 3121 3122 3122 3123 3123 3123 3123 3124 3124 3124 3124 3124 3124 3124 3124 3124 3124 3124 3123 3123 3122 3122 3121 3120 3119 3119 3119 3118 3118 3117 3117 3116 3115 3114 3114 3114 3113 3112 3112 3110 3109 3108 3107 3105 3104 3102 3100
3060 3063 3065 3067 3068 3070 3073 3075 3078 3081 3084 3086 3088 3089 3091 3093 3095 3097 3100 3102 3104 3105 3106 3107 3108 3108 3109 3110 3111 3112 3113 3114 3114 3115 3115 3116 3117 3118 3118 3119 3119 3120 3120 3120 3121 3121 3121 3121 3121 3121 3121 3121 3121 3121 3121 3121 3120 3120 3119 3119 3118 3117 3117 3117 3116 3116 3115 3115 3114 3114 3113 3113 3112 3112 3111 3110 3110 3109 3107 3106 3105 3104 3102 3101 3100
3056 3058 3060 3062 3064 3066 3068 3071 3074 3077 3080 3082 3084 3085 3087 3089 3091 3094 3096 3099 3100 3102 3103 3103 3104 3104 3105 3106 3108 3109 3110 3110 3111 3111 3112 3113 3114 3114 3115 3116 3116 3117 3117 3118 3118 3118 3118 3118 3118 3118 3119 3118 3118 3118 3118 3118 3117 3117 3116 3116 3115 3115 3115 3114 3114 3114 3113 3113 3112 3112 3111 3111 3110 3110 3109 3108 3107 3106 3105 3104 3103 3102 3100 3099 3098
3051 3053 3055 3057 3059 3061 3064 3067 3070 3073 3076 3078 3080 3081 3083 3086 3088 3090 3093 3095 3097 3098 3099 3099 3100 3100 3101 3103 3104 3105 3106 3107 3107 3108 3108 3109 3110 3111 3112 3113 3113 3114 3114 3115 3115 3115 3115 3115 3115 3115 3116 3115 3115 3115 3115 3114 3114 3113 3113 3112 3112 3112 3112 3112 3111 3111 3111 3111 3110 3110 3109 3109 3108 3107 3107 3106 3105 3104 3103 3102 3101 3100 3098 3097 3096
3046 3048 3050 3052 3055 3058 3061 3064 3067 3069 3072 3074 3075 3077 3080 3082 3084 3086 3089 3091 3093 3094 3095 3095 3096 3097 3098 3099 3100 3101 3102 3103 3103 3104 3105 3106 3107 3108 3109 3110 3110 3111 3111 3111 3112 3112 3112 3112 3112 3112 3113 3113 3112 3112 3112 3111 3111 3110 3110 3109 3110 3110 3109 3109 3109 3108 3108 3108 3108 3107 3107 3106 3106 3105 3104 3103 3103 3102 3101 3100 3099 3098 3096 3095 3093
3040 3043 3046 3049 3052 3055 3058 3061 3063 3065 3068 3070 3072 3074 3076 3079 3081 3083 3085 3087 3088 3090 3091 3091 3092 3093 3094 3095 3096 3097 3098 3099 3099 3100 3101 3102 3103 3104 3105 3106 3107 3107 3108 3108 3108 3109 3109 3109 3109 3110 3110 3109 3109 3109 3108 3108 3108 3107 3107 3107 3107 3107 3107 3107 3106 3106 3106 3106 3106 3105 3104 3103 3103 3102 3102 3101 3100 3100 3099 3098 3097 3096 3094 3093 3092
3036 3039 3042 3046 3049 3052 3055 3058 3060 3062 3064 3066 3068 3071 3073 3075 3077 3079 3081 3083 3084 3086 3087 3088 3088 3089 3091 3092 3092 3094 3095 3096 3096 3097 3097 3098 3100 3101 3102 3102 3103 3104 3104 3105 3105 3106 3106 3106 3106 3107 3107 3106 3106 3106 3105 3105 3104 3104 3104 3104 3104 3105 3104 3104 3104 3103 3103 3103 3103 3102 3101 3101 3100 3100 3099 3099 3098 3098 3097 3096 3095 3094 3092 3091 3090
3033 3036 3039 3043 3046 3049 3052 3054 3057 3059 3061 3063 3065 3068 3070 3071 3073 3075 3077 3079 3080 3082 3083 3084 3084 3085 3087 3088 3089 3090 3091 3092 3093 3093 3093 3094 3096 3097 3098 3098 3099 3100 3101 3101 3102 3102 3103 3103 3103 3103 3103 3103 3102 3102 3102 3102 3101 3101 3101 3102 3102 3102 3102 3102 3101 3100 3100 3100 3100 3099 3099 3098 3097 3097 3096 3096 3096 3095 3094 3094 3093 3092 3090 3089 3088
3030 3033 3037 3040 3043 3046 3048 3051 3053 3056 3058 3060 3063 3065 3066 3068 3070 3071 3073 3075 3077 3078 3079 3079 3080 3081 3083 3084 3085 3086 3086 3087 3088 3089 3089 3090 3092 3093 3094 3094 3095 3097 3097 3098 3099 3099 3099 3099 3099 3099 3099 3099 3099 3099 3099 3098 3098 3098 3098 3099 3099 3099 3099 3099 3098 3098 3098 3097 3097 3097 3096 3095 3095 3094 3094 3094 3093 3093 3092 3091 3091 3089 3088 3087 3086
3029 3032 3035 3038 3041 3043 3045 3047 3049 3052 3054 3057 3059 3061 3062 3064 3066 3068 3069 3070 3072 3073 3074 3074 3075 3077 3078 3079 3080 3082 3082 3083 3083 3084 3085 3086 3088 3089 3090 3091 3092 3093 3094 3095 3096 3096 3096 3096 3096 3096 3096 3095 3095 3095 3095 3095 3095 3095 3096 3096 3097 3097 3096 3096 3096 3095 3095 3094 3094 3094 3093 3093 3092 3091 3091 3091 3091 3090 3090 3089 3088 3087 3086 3085 3084
3027 3030 3033 3036 3038 3040 3042 3044 3046 3048 3050 3052 3054 3056 3058 3060 3062 3064 3065 3066 3067 3068 3069 3070 3071 3073 3074 3074 3076 3077 3077 3078 3079 3080 3081 3082 3084 3085 3086 3087 3088 3089 3090 3091 3092 3092 3092 3092 3092 3092 3092 3092 3092 3092 3092 3092 3092 3093 3093 3094 3094 3094 3093 3094 3093 3093 3092 3092 3091 3091 3091 3090 3089 3089 3088 3088 3088 3088 3087 3087 3086 3085 3084 3083 3082
3025 3028 3031 3033 3034 3036 3039 3041 3043 3044 3047 3049 3051 3052 3055 3056 3058 3059 3060 3062 3062 3063 3063 3064 3066 3068 3069 3070 3071 3072 3073 3073 3074 3075 3077 3078 3079 3080 3082 3083 3085 3086 3087 3087 3088 3088 3088 3088 3089 3089 3089 3089 3089 3089 3089 3089 3089 3090 3090 3091 3091 3091 3091 3091 3091 3090 3089 3089 3089 3089 3088 3087 3087 3086 3086 3086 3085 3085 3085 3084 3084 3083 3082 3081 3080
3023 3026 3028 3030 3032 3035 3037 3039 3040 3042 3045 3047 3047 3048 3050 3052 3053 3054 3055 3056 3057 3057 3057 3058 3060 3062 3064 3064 3066 3067 3068 3069 3069 3070 3073 3074 3074 3075 3077 3079 3080 3081 3082 3083 3084 3084 3084 3085 3085 3085 3086 3086 3086 3085 3086 3086 3087 3087 3088 3088 3088 3088 3088 3088 3088 3087 3087 3086 3086 3086 3085 3085 3084 3084 3083 3083 3083 3082 3082 3082 3081 3081 3080 3079 3078
3021 3024 3026 3028 3030 3033 3034 3036 3038 3040 3042 3042 3043 3044 3046 3047 3048 3049 3050 3050 3051 3051 3052 3053 3054 3057 3058 3059 3061 3063 3064 3064 3064 3066 3069 3069 3069 3071 3073 3074 3075 3076 3078 3079 3080 3080 3081 3081 3081 3082 3082 3082 3082 3082 3083 3083 3084 3084 3085 3085 3085 3085 3085 3085 3085 3085 3084 3084 3084 3083 3083 3082 3081 3081 3081 3081 3080 3080 3079 3079 3079 3078 3077 3076 3075
3019 3022 3024 3025 3027 3029 3030 3031 3033 3034 3036 3036 3038 3040 3041 3042 3043 3043 3044 3045 3045 3046 3047 3048 3050 3052 3052 3054 3056 3059 3060 3060 3061 3063 3064 3064 3065 3067 3069 3070 3071 3073 3074 3075 3076 3077 3077 3077 3078 3078 3079 3079 3079 3079 3080 3080 3081 3081 3082 3082 3082 3082 3082 3082 3082 3082 3081 3081 3081 3080 3080 3079 3079 3079 3079 3078 3077 3077 3077 3076 3076 3076 3075 3074 3073
3016 3019 3020 3021 3023 3024 3025 3026 3026 3028 3029 3030 3031 3032 3033 3035 3036 3037 3037 3039 3040 3041 3043 3044 3045 3046 3047 3050 3053 3054 3055 3056 3058 3059 3059 3060 3062 3064 3066 3067 3068 3069 3071 3072 3073 3073 3074 3074 3074 3075 3075 3075 3075 3076 3077 3077 3077 3077 3078 3078 3078 3078 3079 3079 3079 3079 3079 3078 3078 3078 3077 3077 3076 3076 3076 3075 3075 3074 3074 3074 3073 3073 3072 3071 3071
3013 3014 3015 3016 3017 3019 3020 3021 3022 3022 3023 3023 3024 3025 3026 3027 3029 3030 3031 3032 3033 3035 3037 3039 3040 3041 3043 3046 3048 3049 3051 3052 3053 3054 3055 3057 3059 3062 3063 3064 3065 3066 3067 3069 3069 3070 3070 3070 3070 3070 3070 3071 3071 3072 3073 3073 3073 3074 3074 3074 3075 3075 3075 3075 3075 3075 3076 3075 3075 3075 3074 3074 3074 3074 3073 3073 3072 3072 3071 3071 3070 3070 3070 3069 3068
3009 3010 3011 3011 3012 3013 3014 3015 3016 3017 3017 3018 3018 3019 3020 3021 3023 3024 3026 3027 3028 3030 3031 3032 3034 3037 3039 3041 3043 3045 3046 3048 3049 3050 3052 3054 3057 3059 3060 3061 3061 3062 3064 3065 3066 3066 3066 3067 3066 3066 3066 3067 3068 3068 3069 3070 3070 3070 3071 3071 3071 3072 3072 3072 3072 3072 3073 3072 3072 3072 3072 3071 3071 3071 3070 3070 3069 3069 3068 3068 3068 3068 3067 3067 3066
3004 3005 3006 3007 3008 3008 3009 3010 3010 3011 3011 3012 3013 3014 3015 3017 3019 3020 3021 3023 3025 3026 3027 3029 3031 3034 3036 3038 3040 3042 3044 3045 3046 3048 3050 3052 3054 3055 3056 3057 3058 3059 3061 3062 3062 3062 3063 3063 3063 3062 3063 3063 3064 3065 3066 3066 3066 3066 3067 3067 3067 3067 3067 3068 3069 3069 3069 3068 3068 3069 3068 3068 3068 3068 3067 3067 3067 3066 3066 3065 3065 3065 3065 3064 3064
3000 3001 3001 3002 3002 3003 3003 3004 3005 3005 3006 3007 3008 3008 3010 3013 3016 3016 3016 3018 3020 3022 3025 3027 3030 3032 3034 3036 3038 3040 3042 3043 3044 3046 3048 3050 3051 3051 3052 3053 3054 3056 3057 3058 3058 3059 3059 3059 3059 3059 3060 3060 3061 3062 3062 3062 3062 3062 3062 3063 3063 3063 3063 3064 3065 3065 3065 3065 3065 3065 3065 3065 3065 3065 3064 3064 3064 3063 3063 3062 3062 3062 3062 3062 3061
2995 2996 2997 2997 2997 2998 2999 3000 3000 3001 3002 3003 3004 3006 3008 3010 3011 3011 3012 3014 3016 3019 3021 3024 3026 3028 3030 3032 3034 3036 3038 3039 3040 3042 3044 3046 3047 3047 3048 3049 3051 3052 3053 3054 3055 3055 3056 3056 3056 3056 3057 3057 3058 3058 3058 3058 3058 3058 3058 3058 3058 3059 3060 3060 3061 3061 3061 3061 3062 3062 3062 3062 3062 3061 3061 3061 3061 3060 3060 3059 3059 3060 3060 3059 3059
2991 2991 2992 2992 2993 2993 2994 2995 2996 2998 2999 2999 3000 3003 3005 3007 3007 3008 3009 3011 3013 3016 3018 3020 3022 3024 3026 3029 3031 3033 3034 3036 3037 3038 3040 3042 3043 3044 3045 3046 3048 3049 3050 3051 3052 3053 3053 3053 3053 3053 3054 3054 3055 3055 3054 3054 3054 3054 3054 3054 3055 3055 3056 3057 3057 3057 3057 3058 3058 3059 3059 3059 3059 3058 3058 3058 3058 3057 3057 3056 3056 3056 3057 3057 3056
2987 2987 2987 2988 2988 2989 2989 2990 2991 2993 2994 2994 2996 2998 3000 3002 3003 3004 3005 3006 3008 3011 3014 3017 3019 3022 3024 3025 3027 3030 3031 3033 3034 3036 3038 3039 3040 3041 3042 3044 3045 3046 3047 3049 3049 3050 3050 3050 3050 3050 3051 3051 3051 3051 3051 3051 3051 3050 3051 3051 3052 3052 3053 3053 3053 3053 3054 3055 3055 3055 3055 3055 3055 3055 3055 3054 3054 3054 3054 3053 3053 3053 3053 3054 3053
2983 2983 2983 2983 2983 2983 2984 2985 2986 2987 2989 2990 2991 2993 2995 2997 2999 3001 3002 3003 3005 3007 3011 3013 3016 3019 3021 3023 3025 3027 3029 3030 3032 3033 3035 3036 3037 3038 3039 3040 3042 3043 3044 3045 3046 3046 3047 3047 3047 3047 3048 3048 3048 3048 3048 3047 3047 3047 3047 3048 3049 3049 3049 3049 3049 3050 3051 3051 3051 3051 3051 3051 3051 3051 3051 3051 3051 3051 3051 3050 3050 3050 3050 3050 3050
2979 2979 2979 2979 2979 2979 2980 2981 2981 2983 2985 2987 2988 2989 2991 2993 2995 2997 2999 3001 3004 3006 3009 3011 3014 3016 3018 3020 3022 3024 3026 3027 3029 3030 3032 3033 3033 3034 3036 3037 3039 3040 3041 3042 3043 3043 3043 3043 3043 3044 3044 3044 3044 3044 3044 3044 3044 3044 3044 3045 3045 3045 3045 3045 3046 3047 3047 3047 3047 3047 3047 3047 3047 3047 3048 3047 3047 3048 3048 3047 3047 3047 3047 3047 3047
2976 2975 2975 2975 2976 2977 2977 2978 2979 2981 2983 2984 2985 2987 2988 2990 2991 2994 2997 3000 3002 3004 3007 3009 3012 3014 3016 3018 3020 3021 3023 3024 3026 3027 3027 3028 3029 3030 3032 3034 3036 3037 3038 3038 3039 3039 3040 3040 3040 3040 3040 3040 3040 3041 3041 3041 3040 3041 3041 3041 3041 3041 3041 3042 3042 3043 3043 3043 3043 3044 3044 3044 3043 3044 3044 3044 3044 3044 3044 3044 3044 3044 3044 3044 3044
2973 2973 2972 2972 2973 2973 2974 2975 2976 2978 2980 2982 2983 2984 2986 2988 2990 2993 2995 2998 3000 3001 3004 3007 3010 3012 3014 3015 3017 3018 3020 3021 3022 3023 3024 3024 3025 3027 3029 3031 3032 3033 3034 3034 3035 3035 3036 3036 3036 3036 3036 3036 3037 3037 3037 3037 3037 3037 3037 3038 3038 3038 3038 3038 3038 3039 3039 3040 3040 3040 3040 3040 3040 3040 3040 3040 3040 3040 3040 3040 3040 3040 3040 3040 3040
2971 2971 2970 2970 2970 2970 2971 2972 2974 2976 2978 2980 2981 2982 2984 2987 2989 2991 2994 2997 2999 3001 3003 3005 3007 3009 3011 3012 3014 3015 3017 3018 3019 3020 3021 3022 3023 3024 3026 3027 3028 3029 3029 3030 3030 3030 3031 3031 3032 3032 3032 3033 3033 3034 3033 3033 3033 3033 3034 3034 3034 3035 3035 3035 3035 3035 3036 3036 3036 3036 3036 3036 3036 3036 3036 3036 3036 3037 3036 3036 3037 3037 3037 3037 3037
2971 2971 2971 2971 2971 2971 2970 2971 2973 2975 2977 2979 2980 2982 2984 2986 2987 2990 2993 2996 2998 3000 3001 3003 3005 3006 3008 3009 3011 3012 3013 3015 3016 3017 3018 3019 3020 3021 3023 3023 3024 3024 3025 3025 3025 3025 3026 3026 3027 3027 3028 3029 3029 3030 3030 3030 3030 3030 3030 3031 3031 3031 3031 3031 3031 3032 3032 3032 3033 3032 3032 3032 3032 3032 3032 3032 3033 3033 3033 3033 3033 3033 3033 3034 3034
2972 2971 2971 2971 2972 2972 2971 2971 2972 2974 2975 2977 2978 2980 2982 2984 2986 2988 2991 2994 2996 2998 2999 3001 3002 3004 3006 3007 3009 3010 3011 3012 3013 3014 3015 3016 3017 3018 3018 3019 3020 3020 3020 3020 3020 3021 3021 3022 3022 3023 3024 3025 3025 3026 3026 3026 3026 3026 3027 3027 3027 3027 3027 3027 3028 3028 3029 3029 3029 3029 3028 3028 3028 3028 3028 3028 3029 3029 3029 3029 3029 3029 3030 3030 3030
2973 2972 2972 2971 2972 2972 2972 2972 2972 2973 2974 2976 2977 2979 2980 2982 2985 2987 2990 2992 2994 2996 2997 2999 3000 3002 3004 3005 3007 3007 3008 3008 3009 3010 3011 3012 3013 3013 3014 3015 3016 3016 3016 3016 3017 3017 3017 3018 3019 3019 3020 3021 3022 3022 3022 3023 3023 3023 3023 3023 3024 3024 3024 3024 3024 3025 3025 3025 3025 3025 3025 3024 3024 3024 3024 3024 3024 3024 3025 3025 3025 3025 3026 3026 3027
2973 2972 2972 2971 2971 2972 2972 2972 2973 2973 2974 2975 2976 2978 2980 2981 2984 2986 2988 2990 2992 2994 2995 2997 2998 3000 3001 3002 3003 3003 3004 3004 3005 3006 3007 3008 3009 3010 3011 3012 3012 3012 3012 3013 3013 3013 3014 3014 3015 3015 3016 3017 3018 3018 3019 3019 3019 3020 3020 3020 3020 3020 3020 3020 3021 3021 3021 3021 3021 3021 3021 3020 3020 3020 3020 3020 3020 3020 3021 3021 3021 3021 3022 3022 3023
2973 2972 2972 2972 2971 2971 2971 2972 2973 2974 2975 2975 2976 2978 2979 2980 2982 2985 2987 2989 2990 2992 2993 2994 2995 2996 2997 2997 2998 2998 2999 3000 3001 3003 3004 3005 3005 3006 3007 3008 3008 3008 3008 3009 3009 3009 3010 3010 3011 3011 3012 3013 3014 3014 3015 3015 3015 3016 3016 3016 3017 3017 3017 3017 3017 3017 3017 3017 3017 3017 3016 3016 3016 3016 3016 3016 3016 3016 3016 3017 3017 3017 3018 3019 3019
2973 2972 2972 2972 2972 2971 2971 2971 2972 2973 2974 2975 2976 2977 2978 2980 2981 2983 2985 2987 2988 2990 2991 2991 2992 2992 2992 2993 2994 2995 2996 2997 2998 2999 3000 3001 3002 3003 3003 3003 3003 3004 3004 3004 3005 3005 3006 3006 3007 3008 3008 3009 3010 3011 3011 3011 3012 3012 3012 3013 3013 3013 3013 3014 3014 3014 3013 3013 3013 3012 3012 3012 3011 3011 3011 3011 3011 3012 3012 3012 3013 3014 3014 3015 3015
2972 2971 2971 2972 2971 2971 2971 2971 2971 2972 2973 2974 2975 2976 2978 2979 2980 2982 2983 2984 2985 2987 2988 2988 2989 2989 2989 2990 2991 2992 2992 2993 2995 2996 2997 2997 2998 2999 2999 2999 2999 2999 3000 3000 3000 3001 3001 3002 3003 3003 3004 3005 3006 3007 3007 3007 3007 3008 3009 3009 3009 3010 3010 3010 3010 3009 3009 3009 3009 3008 3008 3008 3007 3007 3007 3007 3007 3007 3008 3008 3009 3009 3010 3011 3011
2971 2971 2971 2971 2971 2971 2971 2972 2972 2972 2973 2974 2975 2976 2977 2978 2979 2980 2981 2982 2983 2984 2984 2985 2985 2986 2987 2987 2988 2988 2989 2990 2991 2992 2992 2993 2994 2994 2995 2995 2995 2995 2995 2995 2996 2996 2997 2997 2998 2999 3001 3001 3002 3002 3002 3002 3003 3004 3005 3005 3006 3006 3006 3006 3005 3005 3005 3005 3005 3004 3004 3004 3003 3003 3003 3003 3003 3003 3004 3004 3005 3005 3006 3007 3007
2970 2970 2970 2970 2970 2970 2970 2970 2971 2972 2972 2973 2974 2974 2975 2976 2977 2978 2978 2979 2980 2980 2981 2982 2982 2983 2983 2984 2984 2985 2985 2986 2986 2987 2988 2989 2989 2990 2990 2991 2991 2991 2991 2991 2991 2992 2993 2993 2994 2995 2996 2997 2997 2997 2997 2997 2999 3000 3000 3001 3001 3002 3001 3000 3000 3001 3001 3001 3001 3001 3000 3000 2999 2999 2999 2999 2999 2999 2999 3000 3000 3001 3002 3003 3003
2967 2967 2968 2968 2968 2968 2968 2968 2969 2970 2970 2971 2971 2972 2973 2973 2974 2975 2976 2977 2977 2978 2978 2979 2979 2980 2980 2980 2981 2981 2982 2982 2983 2983 2984 2985 2985 2986 2986 2987 2987 2987 2988 2988 2988 2989 2989 2989 2990 2991 2992 2991 2991 2992 2992 2993 2994 2995 2995 2996 2996 2996 2996 2996 2996 2996 2996 2996 2996 2996 2996 2996 2995 2995 2995 2994 2994 2995 2995 2996 2996 2997 2998 2999 2999
2965 2965 2965 2965 2966 2966 2966 2967 2967 2967 2968 2968 2969 2970 2971 2971 2972 2973 2974 2975 2975 2975 2975 2976 2976 2977 2977 2977 2978 2978 2979 2979 2980 2980 2981 2981 2982 2982 2982 2982 2983 2983 2983 2984 2985 2985 2985 2986 2986 2987 2987 2987 2987 2987 2988 2989 2990 2990 2990 2991 2991 2991 2991 2992 2992 2992 2992 2992 2992 2992 2992 2991 2991 2990 2990 2990 2990 2991 2991 2992 2993 2993 2994 2994 2995
2963 2963 2963 2963 2963 2964 2964 2965 2965 2966 2966 2966 2967 2968 2969 2969 2970 2971 2971 2972 2972 2973 2972 2973 2973 2974 2974 2974 2975 2975 2976 2976 2976 2977 2977 2977 2978 2978 2978 2978 2978 2979 2979 2979 2980 2980 2981 2981 2982 2982 2982 2982 2983 2983 2983 2984 2984 2985 2986 2986 2986 2986 2987 2987 2987 2987 2987 2987 2986 2986 2986 2986 2986 2986 2986 2986 2986 2986 2987 2988 2988 2989 2989 2990 2991
2961 2961 2961 2961 2961 2962 2962 2962 2963 2964 2964 2964 2965 2966 2966 2967 2968 2968 2969 2969 2969 2970 2970 2970 2970 2970 2971 2971 2971 2972 2972 2972 2972 2973 2973 2973 2973 2974 2974 2974 2974 2974 2975 2975 2975 2975 2976 2976 2977 2977 2977 2977 2978 2978 2979 2979 2980 2981 2981 2982 2982 2983 2983 2983 2983 2983 2982 2982 2981 2981 2981 2981 2981 2982 2982 2981 2982 2982 2983 2983 2984 2985 2985 2986 2987